GW5691 Weather Reports


time (UTC)temp
C
wind
direction
speed
KPH
gust
KPH
rain 1hr
cm
rain 24hr
cm
rain mn
cm
humidity
%
barometer
mb
20260504011517 13 143 0.0 0.0 0.00 0.00 0.00 60 1016.8
20260504010017 14 143 0.0 0.0 0.00 0.00 0.00 57 1016.7
20260504004517 15 143 0.0 1.6 0.00 0.00 0.00 53 1016.6
20260504003012 16 149 0.0 3.2 0.00 0.00 0.00 48 1016.4
20260504001508 17 167 0.0 3.2 0.00 0.00 0.00 43 1016.5
20260504000013 17 193 0.0 6.4 0.00 0.00 0.00 40 1016.6
20260503234522 17 172 1.6 4.8 0.00 0.00 0.00 39 1016.7
20260503233021 17 180 1.6 4.8 0.00 0.00 0.00 37 1016.8
20260503231518 18 173 4.8 11.3 0.00 0.00 0.00 36 1017.0
20260503230016 18 246 3.2 9.7 0.00 0.00 0.00 37 1017.1
20260503224512 18 318 1.6 9.7 0.00 0.00 0.00 37 1017.3
20260503223008 20 129 1.6 9.7 0.00 0.00 0.00 36 1017.3
20260503221507 18 168 3.2 9.7 0.00 0.00 0.00 35 1017.4
20260503220026 18 275 4.8 14.5 0.00 0.00 0.00 35 1017.6
20260503214529 18 242 4.8 12.9 0.00 0.00 0.00 36 1017.8
20260503213023 18 237 4.8 14.5 0.00 0.00 0.00 34 1017.9
20260503211515 20 321 1.6 11.3 0.00 0.00 0.00 39 1018.0
20260503210036 19 289 4.8 16.1 0.00 0.00 0.00 34 1018.2
20260503204511 19 358 1.6 4.8 0.00 0.00 0.00 36 1018.3
20260503203014 18 287 3.2 11.3 0.00 0.00 0.00 38 1018.6
20260503201534 20 166 0.0 6.4 0.00 0.00 0.00 41 1018.8
20260503200022 19 248 4.8 9.7 0.00 0.00 0.00 37 1019.1
20260503194521 17 194 4.8 14.5 0.00 0.00 0.00 38 1019.3
20260503193015 18 292 1.6 14.5 0.00 0.00 0.00 50 1019.4
20260503191512 17 299 4.8 11.3 0.00 0.00 0.00 43 1019.7
20260503190013 17 284 6.4 14.5 0.00 0.00 0.00 39 1019.7
20260503184511 17 61 4.8 11.3 0.00 0.00 0.00 39 1019.9
20260503183026 16 306 6.4 20.9 0.00 0.00 0.00 42 1020.1
20260503181524 17 298 4.8 16.1 0.00 0.00 0.00 44 1020.3
20260503180020 17 286 1.6 9.7 0.00 0.00 0.00 44 1020.4
20260503174518 16 226 3.2 12.9 0.00 0.00 0.00 40 1020.6
20260503173016 15 323 6.4 17.7 0.00 0.00 0.00 43 1020.8
20260503171513 16 314 4.8 17.7 0.00 0.00 0.00 48 1021.0
20260503081523 7 103 0.0 0.0 0.00 0.00 0.00 77 1019.7
20260503071535 8 103 0.0 0.0 0.00 0.00 0.00 75 1018.8
20260503054534 12 313 0.0 0.0 0.00 0.00 0.00 69 1018.7
20260503053006 12 313 0.0 0.0 0.00 0.00 0.00 67 1018.5
20260503051522 11 313 0.0 3.2 0.00 0.00 0.00 69 1018.6
20260503050021 10 313 0.0 0.0 0.00 0.00 0.00 74 1018.4
20260503044533 9 313 0.0 0.0 0.00 0.00 0.00 72 1018.4
20260503043014 11 313 0.0 1.6 0.00 0.00 0.00 65 1018.3
20260503041512 12 313 0.0 3.2 0.00 0.00 0.00 63 1018.2
20260503040010 12 313 0.0 3.2 0.00 0.00 0.00 63 1018.0
20260503034524 13 313 0.0 3.2 0.00 0.00 0.00 57 1018.1
20260503033022 12 280 0.0 3.2 0.00 0.00 0.00 61 1018.1
20260503031521 12 309 0.0 4.8 0.00 0.00 0.00 60 1018.2
20260503030017 12 219 0.0 3.2 0.00 0.00 0.00 58 1018.0
20260503024514 12 39 1.6 4.8 0.00 0.00 0.00 57 1017.7
20260503023010 12 64 0.0 4.8 0.00 0.00 0.00 58 1017.5
20260503021508 13 36 1.6 4.8 0.00 0.00 0.00 56 1017.5
20260503020027 13 288 0.0 3.2 0.00 0.00 0.00 56 1017.4
20260503014524 13 59 0.0 3.2 0.00 0.00 0.00 55 1017.1
20260503013030 12 74 1.6 6.4 0.00 0.00 0.00 55 1016.7